Wetbulb
70.86 71.03 70.14 66.25 57.56 57.87 53.72 55.88 61.81 56.31 55.54 60.70 61.52 59.54 58.81 61.82 59.12 51.18 67.09 69.59 71.71 72.32 73.51 74.63 76.01 76.26 75.81 75.77 76.30 76.76 76.51 76.64 76.96 77.02 76.97 77.05 76.79 76.65 76.74 76.71 76.90 77.34 76.96 76.34 75.50 75.31 75.84 76.00 75.45
71.25 70.20 67.66 65.26 54.96 51.87 53.91 60.40 59.07 59.00 60.65 61.66 63.23 63.10 61.70 60.18 65.60 66.13 66.77 71.32 72.54 73.17 73.29 73.83 76.69 76.11 75.38 75.30 75.26 75.94 76.51 76.70 76.73 76.80 77.24 77.17 76.92 76.68 76.87 76.67 76.91 76.92 76.63 76.72 76.36 76.09 75.84 75.89 76.24
70.20 69.93 62.50 60.60 56.12 52.08 54.43 60.17 59.38 61.45 62.18 61.86 62.36 65.12 63.69 61.92 65.82 66.48 69.68 72.29 72.87 72.89 73.56 74.13 76.43 76.44 75.57 75.99 75.23 74.85 75.34 75.83 76.15 76.63 76.87 76.97 77.08 76.94 77.10 77.06 77.07 76.93 76.09 76.53 76.34 76.08 75.75 75.64 75.59
68.06 66.89 62.40 57.00 54.00 57.97 58.83 60.97 60.99 60.83 63.16 64.68 64.07 60.88 65.26 67.09 66.58 69.10 72.24 72.66 72.35 72.16 72.86 75.45 76.80 76.32 76.30 75.81 75.31 75.74 75.93 75.10 75.62 75.97 76.33 76.45 76.95 76.89 77.03 76.84 76.91 76.55 76.38 76.44 75.72 75.78 75.70 75.84 75.45
69.51 65.15 57.56 56.85 56.88 59.52 61.83 64.38 63.73 60.96 62.17 62.98 63.61 60.14 61.55 67.61 69.66 71.22 71.67 72.12 71.46 71.70 72.62 73.70 76.40 76.23 75.99 76.10 75.77 75.56 75.82 75.38 75.68 76.12 76.40 76.59 76.80 76.80 76.38 77.10 76.61 76.58 76.44 76.22 76.06 75.67 75.78 76.21 76.27
63.22 64.45 55.82 53.82 56.83 60.47 62.43 64.08 62.86 62.20 62.75 62.41 61.47 60.83 63.21 68.59 69.01 70.36 71.36 71.19 72.16 72.36 72.86 73.73 76.18 76.13 75.86 75.90 76.14 75.84 75.91 75.50 75.82 76.01 76.09 76.21 76.67 76.26 76.50 76.94 76.20 76.45 76.28 76.09 75.70 76.09 77.09 76.21 75.93
63.09 60.37 56.63 57.12 57.32 59.33 61.18 64.78 61.65 61.65 61.61 61.30 64.05 59.68 64.44 66.51 69.12 70.20 70.51 71.89 72.66 73.31 73.25 73.34 73.73 75.31 76.00 76.00 76.01 75.93 75.55 75.51 75.48 75.67 76.15 76.34 76.45 76.48 76.48 76.54 76.87 76.23 76.23 76.09 75.50 75.53 76.26 76.73 75.36
65.64 61.77 57.23 58.26 57.05 58.15 62.41 64.42 65.76 62.83 61.10 65.70 65.00 59.29 59.44 65.72 69.05 69.84 70.69 70.92 71.82 72.42 73.09 72.64 73.02 73.20 73.27 73.68 75.79 75.90 75.77 75.77 75.69 75.51 76.17 76.09 76.51 76.35 76.33 76.87 77.62 76.45 76.11 75.61 75.56 75.59 76.16 76.24 75.69
66.58 57.39 54.57 57.50 58.72 59.05 63.29 61.54 65.61 67.04 62.67 64.68 64.95 63.83 65.49 68.30 69.31 68.82 69.48 70.29 71.13 72.04 71.89 72.13 71.76 72.35 72.91 73.24 74.61 74.97 75.76 76.11 75.96 75.48 75.71 74.54 72.63 73.66 74.53 76.60 77.08 76.28 75.87 75.53 75.39 75.17 75.69 75.09 75.74
61.16 56.16 56.87 60.61 61.84 60.57 61.91 62.27 63.58 62.39 61.71 61.63 62.89 65.54 67.60 68.15 67.66 67.02 67.38 67.55 69.46 70.25 71.49 71.57 71.54 72.23 72.57 74.70 73.03 72.66 73.72 73.21 73.10 73.10 72.28 72.42 72.66 73.76 74.76 76.18 76.45 76.26 75.98 75.94 75.50 75.17 75.37 73.81 73.73
61.25 57.04 60.82 62.08 63.61 62.91 62.64 62.78 64.19 61.78 59.42 60.94 61.36 63.94 66.23 66.63 66.45 66.12 67.09 68.10 68.73 69.93 71.76 71.30 71.36 72.35 72.29 72.41 72.01 72.06 72.02 71.58 71.58 71.89 71.70 71.94 72.21 72.53 72.92 73.05 73.35 72.95 72.94 69.98 72.15 71.90 73.21 73.27 72.99
57.73 61.45 61.84 62.47 65.50 64.62 62.21 63.26 61.96 63.54 63.11 64.40 65.02 65.98 65.93 65.44 65.35 65.33 66.09 67.58 68.19 69.57 71.13 71.38 71.31 71.93 71.78 72.01 71.64 71.79 71.80 71.64 70.83 71.18 71.66 71.31 71.33 71.61 71.72 71.54 71.70 70.98 70.36 69.00 69.36 68.78 68.84 71.11 72.96
57.50 61.49 63.35 65.18 65.46 64.41 64.19 61.81 61.82 62.84 65.80 65.24 66.35 65.88 65.12 65.24 65.42 65.57 66.63 67.63 68.26 68.91 70.44 70.97 71.32 71.52 71.42 71.63 71.28 71.70 71.52 71.71 71.06 71.05 71.73 71.15 70.86 71.14 71.09 71.48 71.58 71.24 69.44 70.13 70.50 69.44 69.67 68.92 69.58
59.37 61.37 63.14 64.45 63.89 63.95 61.96 61.65 62.06 63.16 66.71 64.13 65.38 64.70 65.06 65.19 65.52 65.94 66.73 66.88 67.85 69.27 69.90 70.75 71.11 71.48 71.50 71.20 71.05 71.09 71.54 71.96 71.66 71.84 71.62 71.42 70.83 70.53 70.88 71.05 71.23 71.37 71.06 71.87 71.75 71.90 71.05 68.66 69.59
58.44 57.99 61.70 62.74 62.50 62.40 63.33 58.88 60.56 65.20 65.44 63.02 64.30 64.59 65.09 65.51 66.37 66.10 67.16 67.57 68.36 69.02 69.98 70.26 70.92 71.59 70.94 71.07 71.10 71.32 71.97 72.07 71.33 72.02 71.77 70.46 70.15 70.39 71.24 70.57 71.43 71.13 71.65 72.48 72.59 71.72 70.74 69.13 69.46
52.15 56.67 54.61 61.26 62.59 63.08 61.08 54.83 62.22 65.13 64.37 62.66 63.62 64.28 64.86 65.53 66.16 67.03 68.13 68.35 68.66 69.59 69.49 69.85 71.87 71.34 70.89 70.38 71.14 71.42 71.46 71.47 71.57 72.09 71.70 70.79 70.34 69.91 71.00 71.17 70.81 71.32 71.99 72.11 71.36 70.39 69.39 68.74 68.57
43.09 46.14 53.53 57.77 62.74 61.39 59.66 55.54 61.04 64.70 64.17 61.79 62.98 63.70 64.37 65.10 65.91 66.90 68.87 68.89 69.47 69.80 69.41 69.15 69.87 70.53 70.51 70.48 70.86 71.18 71.29 71.20 70.90 72.15 72.79 71.76 71.84 71.82 71.48 70.81 71.11 71.83 71.24 71.87 70.59 70.20 69.97 70.01 69.52
39.32 40.39 52.19 55.67 60.31 61.60 58.54 57.79 60.97 63.28 63.33 62.52 62.47 63.32 64.10 64.46 64.95 66.90 68.85 69.57 69.66 69.73 69.50 69.62 69.95 69.97 70.61 71.09 70.13 68.78 67.58 69.31 70.36 71.99 72.35 72.55 71.79 72.01 72.30 71.83 72.10 72.71 71.59 71.87 71.33 71.93 71.23 70.69 69.07
44.13 52.66 54.45 58.08 59.45 57.98 56.39 56.11 59.30 62.25 62.60 62.32 61.00 61.09 63.01 63.95 66.03 67.66 68.69 69.82 69.59 69.40 69.13 69.48 68.65 69.11 70.45 70.17 69.14 68.82 66.78 68.55 69.37 70.94 72.57 72.78 73.06 73.45 72.43 72.59 71.90 73.15 71.78 71.63 72.20 71.23 70.06 69.37 69.38
48.36 53.08 53.87 57.69 60.11 56.83 56.01 56.21 60.22 61.47 61.95 63.05 63.26 58.70 62.15 63.17 65.06 66.52 68.11 69.10 69.10 68.81 68.67 69.20 68.63 68.87 70.68 70.64 70.33 70.09 69.15 69.74 70.00 70.69 72.51 73.25 73.09 73.33 72.17 72.19 72.07 72.96 71.69 71.68 72.18 71.55 70.33 70.16 69.71
40.69 49.84 53.04 53.24 57.62 57.77 56.34 54.76 57.48 61.16 62.54 63.61 64.61 60.96 63.13 63.57 64.14 65.50 67.02 68.32 68.61 68.32 68.07 68.97 68.82 68.73 70.00 70.96 70.56 70.17 70.60 70.63 69.82 70.42 71.79 72.57 73.45 73.18 73.79 72.47 72.24 72.97 72.20 71.61 71.99 72.04 71.16 69.76 70.04
37.59 47.15 56.26 55.39 50.47 47.46 55.46 46.07 54.95 58.32 59.52 61.60 62.70 60.01 61.96 63.55 65.29 65.86 66.77 67.57 67.81 68.42 69.13 69.39 69.09 68.17 69.27 70.87 70.21 69.94 69.61 68.34 69.58 70.24 71.25 72.20 73.55 73.53 73.38 73.17 72.93 73.03 72.55 72.28 72.09 71.88 71.16 70.87 70.58
43.60 47.77 56.00 54.53 51.02 48.76 52.91 46.66 49.36 58.05 56.97 59.27 61.74 61.33 62.36 63.79 64.97 65.65 66.69 68.01 68.39 68.66 68.56 68.75 69.11 68.08 69.04 70.47 70.51 69.74 69.28 69.34 70.23 70.72 70.90 71.91 73.34 73.50 73.54 73.18 73.33 72.51 72.33 72.40 72.94 73.07 72.76 71.37 71.66
52.56 52.82 51.30 49.47 48.06 42.41 48.58 47.96 48.23 54.25 56.68 58.99 60.91 62.86 62.44 63.78 65.21 66.49 67.64 68.74 68.44 69.09 69.13 69.20 68.59 68.12 69.40 69.81 69.60 69.29 68.44 68.24 69.79 70.23 69.60 71.07 72.69 73.15 73.44 73.43 72.85 72.53 72.09 72.02 72.55 72.90 72.12 72.96 73.37
45.60 44.22 40.54 39.16 40.49 39.86 44.52 47.49 47.26 55.00 59.54 60.43 60.24 61.96 61.87 64.02 64.55 65.45 66.72 67.25 67.39 68.43 68.79 69.22 68.51 67.91 69.72 70.12 69.19 69.07 68.75 68.83 69.66 70.47 70.04 70.55 71.36 72.39 72.81 73.52 72.70 72.28 72.60 72.18 71.96 73.30 73.09 72.71 72.41
42.68 43.75 39.88 35.04 37.17 39.76 46.74 44.16 48.12 57.44 59.41 62.21 62.48 63.58 61.77 63.04 64.28 64.86 66.57 66.88 66.44 68.77 69.03 69.27 68.23 67.67 69.10 70.65 70.73 70.30 69.66 69.17 69.85 70.90 70.57 70.54 71.54 72.12 73.22 73.55 73.25 73.16 72.70 72.67 72.24 72.24 72.88 73.27 72.86
40.51 40.56 43.79 39.02 35.30 40.26 43.40 47.53 53.53 58.15 59.42 61.27 62.12 62.97 62.57 62.72 64.17 65.09 66.24 67.66 67.51 68.64 69.36 68.81 68.00 67.87 68.42 69.68 70.50 70.76 69.72 69.90 69.97 70.89 71.18 70.32 71.28 72.06 72.69 73.47 73.56 73.63 73.19 73.38 73.07 72.87 72.79 73.31 72.77
43.10 44.95 39.01 36.88 32.78 33.20 41.58 43.92 46.27 54.55 56.60 60.45 61.13 62.66 63.19 63.34 63.82 65.01 65.87 67.36 68.84 68.94 69.59 70.56 69.81 68.97 69.19 69.74 70.38 71.06 70.19 70.44 70.04 70.42 70.51 70.26 70.60 71.72 72.68 72.85 73.50 73.38 73.41 73.30 73.13 72.62 72.24 72.49 72.20
43.40 40.54 39.03 39.07 37.54 37.80 37.98 42.55 56.45 56.57 57.18 59.55 61.27 63.08 63.62 63.98 64.53 64.66 65.64 66.96 68.19 68.66 68.35 68.06 68.69 69.83 70.00 70.34 71.07 71.70 72.03 70.95 69.97 70.42 70.35 70.58 70.63 71.63 71.42 72.43 72.28 72.52 72.02 72.82 72.74 72.59 72.35 71.80 71.85
42.55 41.26 40.32 37.71 38.26 39.73 40.72 43.50 59.71 60.17 61.51 60.29 60.85 62.38 63.38 64.30 65.46 66.42 66.42 66.99 67.69 68.01 67.88 67.29 68.08 69.02 68.91 68.96 70.43 70.93 71.32 71.83 72.04 72.04 71.71 71.72 71.45 71.79 71.18 71.98 71.99 71.16 72.27 73.19 72.77 72.55 73.02 71.97 71.73
MSLP
1011.29 1011.30 1011.55 1011.63 1012.30 1011.84 1011.38 1010.62 1010.07 1010.31 1010.99 1011.02 1011.84 1012.18 1013.01 1013.59 1014.50 1015.83 1015.69 1015.69 1015.71 1016.19 1016.51 1016.77 1017.00 1017.15 1017.31 1017.49 1017.51 1017.59 1017.67 1017.73 1017.73 1017.75 1017.83 1017.96 1017.99 1018.10 1018.20 1018.24 1018.32 1018.34 1018.30 1018.40 1018.57 1018.66 1018.70 1018.77 1018.84
1011.21 1011.53 1011.70 1011.82 1012.22 1011.89 1011.07 1010.11 1009.73 1009.71 1009.91 1010.77 1011.41 1012.02 1012.87 1014.12 1014.57 1015.30 1015.76 1015.75 1015.80 1016.36 1016.76 1017.01 1017.18 1017.36 1017.58 1017.77 1017.89 1017.93 1018.01 1018.03 1018.11 1018.05 1018.13 1018.20 1018.27 1018.23 1018.35 1018.53 1018.61 1018.81 1018.82 1018.84 1018.96 1019.05 1019.15 1019.19 1019.22
1011.19 1011.55 1012.11 1011.98 1012.07 1011.79 1010.96 1010.10 1009.54 1009.53 1010.09 1010.72 1011.68 1012.29 1013.29 1014.27 1014.85 1015.45 1015.60 1015.83 1016.05 1016.71 1016.99 1017.20 1017.34 1017.58 1017.81 1017.97 1018.10 1018.21 1018.28 1018.40 1018.54 1018.45 1018.42 1018.49 1018.51 1018.55 1018.54 1018.71 1018.78 1019.04 1019.26 1019.33 1019.37 1019.37 1019.43 1019.53 1019.52
1011.39 1011.86 1012.26 1012.23 1011.82 1011.75 1011.17 1010.33 1009.93 1009.98 1010.77 1011.11 1011.74 1013.04 1014.02 1014.35 1014.98 1015.41 1015.87 1015.89 1016.40 1016.99 1017.16 1017.29 1017.54 1017.77 1017.94 1018.19 1018.34 1018.43 1018.51 1018.72 1018.80 1018.70 1018.69 1018.72 1018.75 1018.90 1018.94 1018.89 1019.16 1019.30 1019.53 1019.63 1019.69 1019.70 1019.67 1019.77 1019.87
1011.67 1012.09 1012.23 1012.03 1011.89 1011.52 1011.30 1010.58 1010.24 1010.39 1010.78 1011.37 1011.79 1013.69 1014.49 1015.28 1015.22 1015.65 1016.05 1016.33 1016.58 1017.24 1017.37 1017.51 1017.77 1017.92 1018.10 1018.31 1018.46 1018.62 1018.79 1018.81 1019.01 1019.12 1018.95 1018.95 1018.91 1019.01 1019.09 1019.16 1019.47 1019.70 1019.85 1019.95 1020.03 1019.91 1019.93 1020.12 1020.23
1011.78 1012.08 1012.21 1011.86 1012.02 1011.58 1011.43 1011.22 1010.73 1010.77 1011.25 1011.99 1012.76 1013.53 1015.40 1015.77 1015.62 1016.14 1016.35 1016.64 1016.79 1017.35 1017.55 1017.69 1017.90 1018.08 1018.39 1018.61 1018.59 1018.72 1018.91 1019.11 1019.16 1019.20 1019.29 1019.23 1019.23 1019.38 1019.45 1019.52 1019.80 1019.94 1020.15 1020.26 1020.32 1020.34 1020.33 1020.49 1020.61
1011.61 1011.56 1012.01 1011.78 1011.62 1011.75 1011.80 1011.61 1011.09 1011.18 1011.49 1012.06 1012.57 1014.08 1015.49 1016.14 1016.10 1016.41 1016.75 1016.94 1017.08 1017.47 1017.76 1017.93 1018.11 1018.23 1018.49 1018.70 1018.88 1018.96 1019.19 1019.36 1019.46 1019.50 1019.55 1019.49 1019.55 1019.75 1019.98 1019.85 1020.10 1020.27 1020.44 1020.60 1020.71 1020.78 1020.80 1020.85 1020.93
1011.43 1011.95 1011.75 1011.29 1011.57 1012.20 1011.80 1011.75 1011.53 1011.17 1011.83 1012.12 1012.64 1014.08 1015.23 1015.93 1016.41 1016.73 1017.21 1017.49 1017.73 1017.79 1018.00 1018.25 1018.46 1018.59 1018.81 1018.96 1019.10 1019.17 1019.36 1019.57 1019.69 1019.77 1019.79 1019.83 1019.93 1020.12 1020.16 1020.45 1020.39 1020.55 1020.78 1020.92 1021.04 1021.07 1021.11 1021.10 1021.25
1011.59 1012.13 1012.00 1011.35 1011.49 1012.15 1012.27 1011.87 1011.93 1011.85 1012.07 1012.18 1012.65 1013.52 1014.67 1015.78 1016.52 1017.10 1017.60 1018.00 1018.14 1018.41 1018.53 1018.52 1018.77 1018.93 1019.07 1019.20 1019.22 1019.39 1019.50 1019.67 1019.81 1020.01 1020.04 1020.35 1020.55 1020.53 1020.72 1020.73 1020.69 1020.89 1021.04 1021.18 1021.25 1021.27 1021.35 1021.34 1021.37
1011.57 1011.93 1011.91 1011.87 1011.80 1012.15 1012.03 1012.31 1012.32 1012.44 1012.52 1013.13 1013.51 1014.66 1015.33 1016.03 1016.67 1017.21 1017.63 1018.06 1018.33 1018.59 1018.79 1018.79 1019.04 1019.11 1019.26 1019.30 1019.64 1019.87 1019.99 1020.19 1020.35 1020.46 1020.75 1020.81 1020.91 1020.93 1020.92 1020.87 1021.06 1021.25 1021.40 1021.49 1021.45 1021.50 1021.54 1021.70 1021.85
1011.24 1011.47 1011.57 1011.75 1011.73 1012.08 1012.65 1012.94 1012.85 1012.69 1012.86 1012.56 1013.38 1014.78 1015.47 1016.17 1016.97 1017.46 1017.79 1018.06 1018.27 1018.62 1018.96 1019.18 1019.18 1019.33 1019.47 1019.65 1019.90 1020.21 1020.35 1020.47 1020.74 1020.90 1021.07 1021.21 1021.30 1021.36 1021.46 1021.49 1021.76 1021.91 1022.00 1022.03 1021.85 1021.82 1021.88 1021.97 1022.07
1010.94 1011.02 1011.30 1011.39 1011.60 1012.11 1012.63 1012.94 1012.71 1012.73 1012.53 1013.00 1013.29 1014.45 1015.53 1016.11 1016.94 1017.30 1017.63 1018.01 1018.42 1018.70 1019.01 1019.27 1019.33 1019.59 1019.69 1019.87 1020.12 1020.45 1020.61 1020.77 1021.01 1021.22 1021.27 1021.35 1021.65 1021.75 1021.91 1021.89 1022.10 1022.25 1022.39 1022.39 1022.31 1022.27 1022.19 1022.04 1022.03
1010.66 1010.58 1011.07 1010.95 1011.34 1011.87 1012.52 1013.05 1013.11 1013.07 1012.96 1013.50 1014.11 1014.95 1015.68 1016.22 1017.07 1017.63 1017.85 1018.15 1018.55 1018.73 1018.91 1019.23 1019.40 1019.72 1019.90 1020.05 1020.28 1020.52 1020.83 1020.96 1021.12 1021.32 1021.44 1021.48 1021.81 1021.97 1022.15 1022.19 1022.26 1022.39 1022.44 1022.41 1022.34 1022.28 1022.13 1022.03 1021.93
1009.86 1010.33 1010.87 1010.96 1011.24 1011.69 1012.15 1013.26 1013.27 1013.10 1013.17 1013.88 1014.51 1015.13 1015.73 1016.14 1016.85 1017.56 1017.82 1018.16 1018.50 1018.73 1018.85 1019.09 1019.40 1019.73 1020.02 1020.12 1020.34 1020.57 1020.91 1020.99 1021.19 1021.38 1021.53 1021.58 1021.78 1021.87 1022.13 1022.18 1022.27 1022.45 1022.55 1022.49 1022.45 1022.35 1022.24 1022.27 1022.21
1009.72 1010.48 1010.79 1011.09 1011.23 1011.66 1012.05 1013.60 1013.20 1012.80 1013.19 1013.88 1014.62 1015.16 1015.70 1016.03 1016.53 1016.97 1017.21 1017.90 1018.30 1018.57 1018.85 1019.01 1019.21 1019.69 1020.14 1020.18 1020.36 1020.59 1020.70 1021.00 1021.22 1021.42 1021.58 1021.74 1021.87 1021.97 1022.07 1022.33 1022.43 1022.47 1022.55 1022.57 1022.56 1022.41 1022.38 1022.36 1022.43
1009.97 1010.43 1010.86 1010.82 1011.09 1011.80 1012.01 1012.85 1013.01 1013.16 1013.33 1014.16 1014.75 1015.26 1015.57 1015.78 1016.14 1016.78 1017.14 1017.64 1018.07 1018.53 1018.91 1019.11 1019.14 1019.52 1019.98 1020.31 1020.49 1020.62 1020.71 1020.89 1021.16 1021.33 1021.53 1021.71 1021.94 1022.31 1022.50 1022.49 1022.47 1022.47 1022.37 1022.53 1022.75 1022.73 1022.81 1022.85 1022.86
1010.62 1010.69 1010.76 1011.04 1011.11 1011.54 1012.56 1013.33 1013.55 1013.72 1013.87 1014.35 1014.65 1015.14 1015.38 1015.77 1016.37 1016.67 1016.95 1017.54 1017.93 1018.36 1018.86 1019.23 1019.30 1019.55 1019.94 1020.31 1020.64 1020.82 1020.79 1021.10 1021.36 1021.50 1021.56 1021.68 1021.87 1022.19 1022.64 1022.44 1022.51 1022.56 1022.42 1022.52 1022.65 1022.87 1023.05 1023.08 1023.06
1010.69 1010.60 1010.67 1010.83 1011.41 1011.71 1012.76 1013.32 1013.43 1014.01 1014.23 1014.37 1014.66 1014.97 1015.36 1015.76 1015.96 1016.46 1016.78 1017.35 1017.79 1018.43 1018.90 1019.25 1019.46 1019.59 1019.99 1020.35 1020.92 1021.15 1021.13 1021.40 1021.48 1021.55 1021.68 1021.75 1021.91 1022.22 1022.40 1022.43 1022.44 1022.70 1022.70 1022.73 1022.69 1022.93 1022.97 1023.09 1023.18
1010.23 1010.54 1010.97 1011.83 1012.16 1012.31 1012.85 1013.73 1013.90 1014.09 1014.51 1014.49 1014.66 1014.77 1015.07 1015.40 1015.62 1016.21 1016.69 1017.23 1017.79 1018.42 1018.87 1019.25 1019.45 1019.73 1020.09 1020.66 1021.02 1021.39 1021.49 1021.52 1021.65 1021.62 1021.61 1021.85 1021.91 1022.10 1022.35 1022.46 1022.55 1022.69 1022.83 1022.79 1022.73 1022.95 1023.08 1023.21 1023.23
1010.48 1010.83 1011.73 1012.47 1012.49 1012.64 1013.52 1013.47 1013.83 1014.12 1014.29 1014.47 1014.56 1014.68 1014.69 1015.35 1015.88 1016.32 1016.77 1017.18 1017.71 1018.38 1018.77 1019.17 1019.31 1019.66 1019.96 1020.11 1020.39 1020.69 1021.11 1021.49 1021.51 1021.59 1021.69 1021.65 1021.81 1022.04 1022.43 1022.49 1022.55 1022.67 1022.83 1022.83 1022.98 1023.05 1023.31 1023.45 1023.42
1010.51 1010.91 1011.65 1012.23 1012.95 1013.15 1013.15 1013.76 1013.83 1013.98 1014.22 1014.38 1014.43 1014.30 1014.38 1014.84 1015.58 1016.11 1016.56 1017.05 1017.53 1018.04 1018.41 1018.90 1019.02 1019.36 1019.82 1020.15 1020.32 1020.87 1021.14 1021.40 1021.72 1021.84 1021.83 1021.62 1021.64 1021.94 1022.13 1022.33 1022.48 1022.63 1022.77 1022.94 1023.13 1023.17 1023.29 1023.58 1023.64
1010.33 1010.33 1011.11 1012.17 1012.90 1013.66 1013.39 1014.39 1013.91 1013.53 1013.76 1014.06 1014.07 1014.07 1014.19 1014.53 1015.03 1015.41 1016.09 1016.80 1017.13 1017.52 1018.18 1018.63 1018.99 1019.16 1019.69 1020.04 1020.33 1020.56 1020.87 1021.25 1021.40 1021.43 1021.65 1021.62 1021.68 1021.77 1021.99 1022.24 1022.40 1022.62 1022.80 1022.91 1023.09 1023.08 1023.29 1023.42 1023.69
1009.77 1009.88 1010.87 1011.98 1013.06 1013.76 1014.29 1014.31 1013.31 1013.37 1013.42 1013.41 1013.48 1013.51 1013.72 1013.91 1014.25 1014.87 1015.43 1015.81 1016.47 1017.21 1017.77 1018.37 1018.86 1019.31 1019.56 1019.96 1020.15 1020.46 1020.95 1021.13 1021.27 1021.56 1021.67 1021.72 1021.68 1021.85 1022.01 1022.18 1022.32 1022.58 1022.85 1022.86 1022.85 1023.19 1023.36 1023.47 1023.64
1009.37 1010.65 1011.97 1013.19 1013.90 1014.47 1013.72 1013.86 1013.30 1012.31 1011.38 1011.88 1012.36 1012.79 1013.12 1013.37 1013.76 1013.99 1014.68 1015.50 1016.33 1017.17 1017.67 1018.29 1018.83 1019.23 1019.57 1019.93 1020.07 1020.37 1020.97 1021.29 1021.31 1021.64 1021.88 1021.86 1021.88 1021.91 1022.06 1022.21 1022.47 1022.63 1022.77 1022.77 1022.83 1022.98 1023.30 1023.50 1023.66
1009.42 1010.91 1013.08 1014.24 1014.77 1014.46 1013.57 1013.53 1011.88 1011.41 1011.00 1010.59 1010.39 1011.69 1012.51 1012.98 1013.62 1014.19 1014.92 1015.49 1016.09 1016.76 1017.45 1018.06 1018.62 1019.11 1019.41 1019.90 1020.11 1020.31 1020.63 1020.91 1021.20 1021.36 1021.60 1021.79 1021.85 1021.87 1021.95 1022.07 1022.43 1022.62 1022.71 1022.76 1022.87 1022.99 1023.27 1023.45 1023.67
1009.52 1010.34 1011.73 1013.12 1014.20 1014.11 1013.76 1013.05 1011.52 1010.99 1011.13 1011.32 1011.46 1012.27 1012.47 1012.95 1013.51 1014.03 1014.60 1015.39 1016.33 1017.02 1017.75 1018.07 1018.40 1018.88 1019.31 1019.78 1020.08 1020.28 1020.36 1020.57 1020.89 1021.16 1021.41 1021.57 1021.50 1021.44 1021.53 1021.80 1022.03 1022.29 1022.53 1022.69 1022.93 1023.03 1023.07 1023.27 1023.61
1009.31 1010.11 1010.34 1012.30 1013.65 1013.79 1013.61 1012.81 1011.93 1011.17 1010.67 1010.92 1011.53 1012.06 1012.51 1012.94 1013.35 1013.91 1014.83 1015.75 1016.68 1017.03 1017.81 1018.30 1018.45 1018.77 1019.41 1019.70 1019.95 1020.31 1020.49 1020.57 1020.66 1020.90 1021.10 1021.31 1021.23 1021.12 1021.25 1021.55 1021.80 1022.02 1022.20 1022.47 1022.83 1023.12 1023.13 1023.28 1023.61
1007.85 1008.80 1010.54 1011.93 1013.43 1013.97 1013.83 1013.22 1012.46 1012.09 1011.89 1011.65 1012.04 1012.47 1013.07 1013.28 1013.71 1014.32 1015.05 1015.45 1016.87 1017.22 1018.08 1018.30 1018.55 1018.73 1019.06 1019.55 1019.88 1020.07 1020.36 1020.52 1020.81 1021.13 1021.13 1021.23 1021.39 1021.14 1021.19 1021.36 1021.57 1021.76 1022.05 1022.35 1022.59 1022.98 1023.05 1023.30 1023.52
1008.40 1009.10 1010.45 1011.73 1012.82 1013.52 1013.89 1013.47 1012.65 1012.41 1012.49 1012.61 1012.72 1013.21 1013.61 1013.87 1014.15 1014.54 1014.97 1015.84 1016.50 1017.44 1018.45 1018.70 1018.59 1018.91 1019.22 1019.57 1019.70 1019.94 1020.12 1020.46 1020.72 1020.93 1021.06 1021.05 1021.39 1021.27 1021.33 1021.45 1021.62 1021.81 1022.03 1022.22 1022.56 1022.71 1022.94 1023.18 1023.41
1008.13 1008.88 1009.82 1011.63 1013.34 1013.60 1013.33 1013.49 1012.88 1012.76 1012.77 1013.23 1013.63 1013.92 1014.31 1014.55 1014.64 1015.21 1015.75 1016.02 1016.65 1017.79 1018.34 1018.59 1018.51 1018.96 1019.39 1019.52 1019.65 1019.67 1019.80 1020.06 1020.19 1020.37 1020.64 1020.69 1020.83 1020.92 1021.26 1021.16 1021.45 1021.71 1021.82 1021.98 1022.27 1022.49 1022.72 1022.91 1023.17
Wind_Speed
2 4 1 1 3 1 3 3 1 9 7 3 12 5 3 5 1 3 3 5 12 10 6 8 10 10 9 9 8 10 9 9 9 10 10 10 10 12 12 13 14 14 15 17 16 15 14 16 16
4 3 1 1 2 1 3 2 2 4 10 20 6 7 6 4 4 10 5 9 13 9 6 6 9 10 9 8 8 8 10 9 9 8 9 9 10 11 12 13 14 15 15 16 15 15 14 14 14
5 1 2 1 2 1 2 3 3 8 17 12 5 7 4 4 10 8 7 12 12 7 6 7 11 9 9 9 8 8 7 7 6 8 9 8 9 10 12 13 14 15 13 15 14 12 11 10 10
2 3 2 1 3 2 3 3 11 16 6 7 10 10 6 9 5 7 12 12 12 7 6 9 11 11 8 9 8 7 7 7 6 8 8 9 9 10 12 14 14 14 13 12 10 10 9 9 8
2 1 1 1 1 1 5 5 3 4 5 6 1 7 10 3 15 14 12 11 12 7 5 6 11 11 8 8 8 8 7 8 7 7 8 9 7 10 10 13 13 13 12 11 9 9 11 12 12
1 2 1 1 4 5 3 7 1 5 9 9 10 10 3 10 15 11 11 10 9 7 6 5 10 10 9 8 8 7 7 7 7 7 8 7 7 8 9 12 13 12 11 10 10 12 11 12 11
2 2 2 4 4 6 3 9 4 7 10 6 7 9 7 9 11 10 8 8 7 6 5 5 4 8 9 8 7 8 7 7 7 8 9 6 6 7 8 10 12 12 11 10 9 9 10 8 10
2 0 3 2 9 4 1 5 3 7 5 7 11 6 12 10 10 11 8 7 6 5 5 5 4 5 5 5 8 7 8 9 10 8 9 6 7 6 7 9 10 12 10 9 8 7 8 8 9
2 1 3 3 3 8 5 2 3 2 7 2 3 12 14 15 14 12 10 5 5 5 4 4 4 5 5 3 4 6 7 9 9 8 9 7 4 5 5 9 11 11 9 7 6 5 6 7 8
3 1 1 5 4 9 10 4 3 4 8 11 16 17 18 16 14 13 11 11 8 5 4 4 4 4 3 3 5 5 5 4 4 5 5 3 4 3 5 8 10 10 9 8 6 5 5 6 3
4 2 4 4 13 7 5 7 5 8 5 16 23 20 18 15 11 10 9 9 7 5 4 4 4 4 3 4 3 2 2 3 3 5 4 4 3 3 3 3 3 3 7 3 4 4 2 1 1
3 4 2 0 13 14 8 6 3 5 3 14 22 21 16 15 12 11 11 9 7 7 5 5 5 4 3 3 3 3 3 2 2 2 3 2 2 3 3 2 3 3 2 3 2 2 3 3 3
3 5 5 2 13 18 12 7 9 3 8 13 18 17 16 12 9 5 5 6 6 6 6 6 5 5 4 4 3 3 3 2 2 2 2 2 2 2 1 2 2 2 2 3 3 3 3 2 2
5 5 9 7 12 11 15 7 2 4 9 17 17 16 14 13 11 7 7 7 8 6 7 7 6 5 4 4 4 3 3 2 3 2 2 2 2 2 2 2 3 3 2 2 2 2 2 3 3
3 6 6 7 11 9 15 9 7 6 14 18 17 15 14 13 12 12 11 9 9 6 6 8 7 6 5 5 4 3 2 3 3 2 3 3 2 2 1 1 1 1 1 3 3 3 2 3 3
4 5 4 7 12 8 2 4 6 5 12 16 16 14 14 15 15 9 10 10 8 6 7 6 8 6 6 4 3 2 3 2 3 3 4 4 3 3 2 1 1 1 2 2 2 2 3 2 1
5 3 4 6 11 8 3 4 4 2 3 16 15 14 15 12 9 8 11 9 8 8 7 7 6 8 6 5 3 2 2 2 3 2 3 4 3 1 1 2 0 2 2 2 2 2 1 1 1
3 2 2 7 11 8 2 6 7 7 3 7 14 13 14 12 14 11 11 9 7 6 6 6 5 6 6 4 4 3 3 2 1 2 3 4 4 4 2 2 2 1 1 2 2 2 1 2 2
3 4 8 5 2 6 2 5 4 8 7 5 6 12 13 14 12 12 11 10 9 7 7 7 7 6 5 3 3 3 3 1 1 1 4 4 4 4 3 2 2 2 2 2 2 1 4 3 2
5 6 5 5 2 4 4 5 7 12 11 4 6 8 14 8 10 11 11 10 10 9 8 6 7 9 6 3 3 3 3 2 2 1 2 4 4 4 4 4 3 3 2 2 3 3 2 2 3
2 6 5 7 5 6 8 4 5 7 8 6 5 7 10 15 13 11 12 11 9 10 10 9 9 9 6 5 4 3 3 3 2 1 1 3 4 4 3 4 4 3 2 1 2 2 3 2 2
4 8 10 14 5 5 2 3 4 10 13 10 7 7 10 13 15 14 14 12 13 12 8 7 6 8 6 7 4 5 4 3 3 3 2 3 3 4 4 4 4 4 2 3 1 2 2 2 3
7 7 15 11 5 5 6 2 3 10 12 13 8 8 14 15 17 16 17 17 14 11 11 7 7 6 6 6 6 4 3 2 2 2 4 3 2 2 3 3 4 4 3 2 3 2 2 1 2
5 9 10 6 4 2 8 6 5 12 22 21 19 16 14 16 18 18 17 13 11 9 9 8 9 6 6 6 6 7 6 5 3 3 3 3 2 2 2 3 2 3 4 3 2 2 2 2 3
4 5 3 4 1 6 4 5 7 10 11 25 29 20 15 16 15 14 14 13 12 12 11 8 9 8 7 6 6 7 7 6 5 5 4 4 3 2 4 4 4 3 3 3 3 3 3 2 2
8 9 7 6 5 3 3 6 4 6 6 11 11 17 9 13 13 13 12 10 6 6 5 8 10 8 7 6 6 5 6 4 4 4 3 4 3 4 4 4 4 4 3 3 3 2 3 3 2
5 4 6 8 3 4 2 3 5 7 5 11 12 13 11 13 13 16 12 9 7 7 4 5 8 6 6 6 4 4 5 5 5 5 3 4 3 3 4 4 4 4 4 3 4 2 3 3 2
6 6 4 3 5 3 2 3 3 3 3 7 13 11 9 9 12 12 11 13 4 6 2 4 5 5 6 6 5 4 5 4 2 2 2 3 2 3 4 4 4 4 4 4 5 3 2 2 1
2 1 7 6 4 7 4 5 2 4 5 8 8 8 9 10 11 13 14 12 10 8 5 7 5 6 4 4 5 5 4 4 5 4 4 4 3 3 3 3 3 4 5 5 4 4 4 4 3
1 4 5 7 4 2 3 3 2 5 8 10 9 8 7 6 8 8 7 10 13 10 8 7 7 8 5 2 4 4 3 4 4 4 4 4 4 3 5 4 4 4 4 4 5 5 5 5 4
Wind_Direction
221 149 148 344 53 22 302 286 24 101 133 191 159 152 165 52 111 170 142 148 129 134 143 146 138 124 120 117 110 113 117 111 110 110 105 104 101 103 107 107 106 101 96 100 101 100 98 99 92
150 154 11 75 87 137 238 284 108 180 150 135 118 99 50 85 77 116 115 138 129 128 129 130 140 132 129 124 118 111 114 113 109 120 112 112 108 105 107 104 104 99 100 102 102 102 103 101 94
157 295 66 133 129 191 347 0 123 109 131 132 105 52 67 74 108 123 125 128 119 107 118 140 139 139 136 132 127 122 121 116 111 112 110 100 109 100 105 107 106 107 105 102 105 103 100 106 96
191 27 17 313 140 176 267 82 107 114 91 61 115 76 68 104 115 124 128 122 111 111 119 139 138 143 135 145 130 122 139 132 135 121 116 108 112 107 108 112 109 105 104 97 89 87 92 105 106
360 87 341 355 248 217 252 297 60 97 87 116 73 94 103 35 113 125 125 123 122 118 129 138 138 131 134 122 136 122 126 134 137 133 121 116 121 117 102 99 103 109 109 102 86 85 100 98 102
60 41 45 238 186 160 248 347 35 80 101 107 92 101 78 132 124 131 125 122 119 124 133 139 141 133 123 133 130 126 118 128 137 120 125 132 118 109 104 100 111 113 112 103 90 85 92 104 107
242 136 221 217 190 149 111 306 85 83 113 108 123 112 119 138 133 116 118 111 113 117 126 123 115 137 129 130 117 119 121 124 126 130 128 122 119 108 104 110 113 115 118 107 99 91 80 99 114
97 308 263 338 159 102 119 334 10 74 54 109 146 154 150 154 124 109 100 95 103 113 121 120 104 103 97 104 131 128 127 125 124 128 127 129 127 119 117 108 115 111 114 107 99 81 79 79 137
107 73 325 24 95 119 142 41 26 48 142 91 84 124 123 129 122 116 117 104 109 117 113 108 104 109 107 121 130 120 114 120 124 125 118 59 53 50 59 109 102 102 104 99 100 99 76 72 118
134 131 330 18 110 167 146 94 322 144 98 97 92 103 122 132 137 143 153 158 158 138 130 122 130 129 134 103 81 68 65 78 76 79 66 57 60 43 85 97 99 98 93 84 85 83 77 53 56
164 155 209 88 108 159 163 138 237 133 103 153 139 139 140 144 148 154 151 163 164 138 149 146 148 150 132 109 97 71 83 80 80 87 90 54 46 43 44 59 63 61 70 42 35 21 23 49 85
149 165 178 309 147 167 163 120 85 356 77 142 137 141 146 153 159 174 164 158 149 152 160 156 160 157 146 117 109 109 97 89 99 92 104 105 64 55 56 69 64 67 61 69 47 4 311 293 242
208 177 135 82 133 153 140 126 164 173 92 133 136 144 155 157 152 150 152 141 141 164 167 166 153 173 170 145 131 122 100 100 129 140 143 127 118 119 119 99 86 79 43 44 23 8 356 14 244
191 148 138 145 134 142 136 129 99 209 139 146 150 152 159 163 160 151 159 165 166 174 174 156 166 174 171 156 149 153 146 153 137 139 167 178 168 178 126 64 52 64 54 28 9 349 8 33 37
169 116 131 149 143 134 124 147 208 129 154 159 159 163 162 172 168 185 172 166 174 179 165 168 164 160 175 173 159 161 182 151 147 167 166 167 206 218 184 17 5 13 53 51 22 22 22 59 48
113 101 152 161 156 158 8 159 163 103 151 167 165 169 168 177 184 175 176 169 167 154 176 168 174 162 171 173 162 152 168 160 142 154 157 181 210 238 291 128 172 148 87 76 51 27 40 43 62
13 169 178 157 176 131 43 83 268 117 166 168 173 172 178 179 175 174 176 166 162 171 166 175 166 167 163 153 143 141 163 136 126 162 181 183 176 183 253 155 167 350 55 65 45 48 72 53 279
196 126 140 125 181 140 86 54 168 173 219 150 175 176 177 174 185 170 173 168 149 159 159 175 167 152 138 124 104 85 96 86 74 128 181 180 161 177 145 158 106 74 29 66 55 46 22 28 359
127 77 101 80 8 85 359 359 168 177 232 189 155 181 179 183 182 172 163 158 149 154 159 177 153 159 140 149 133 132 138 157 142 212 165 173 165 163 148 153 140 79 56 75 58 54 37 30 1
105 96 78 71 29 69 123 323 159 180 207 202 162 181 183 151 162 157 163 167 169 168 174 177 168 161 171 167 140 139 144 160 148 180 181 168 172 180 161 159 158 127 113 75 69 57 41 22 13
139 141 168 139 126 45 116 6 127 183 216 235 210 188 184 159 169 168 167 176 167 178 182 185 176 169 175 144 109 89 92 88 106 160 186 231 170 179 167 154 141 128 134 140 83 88 73 56 30
183 189 152 141 112 150 162 204 234 190 215 228 229 180 181 176 175 174 170 181 183 194 183 176 175 169 175 157 146 156 165 155 191 163 169 197 200 180 162 164 152 148 139 136 120 100 96 101 37
223 166 158 160 100 104 190 144 232 165 206 227 241 192 187 181 176 181 184 188 187 178 186 180 164 177 165 178 173 159 160 164 129 127 160 179 228 195 186 173 171 155 156 164 143 109 96 79 92
122 88 49 60 73 313 192 185 228 189 201 198 201 224 190 187 188 185 190 178 178 178 176 174 167 190 172 177 172 166 176 181 151 164 186 193 191 195 213 170 178 161 166 169 158 133 137 99 91
78 75 70 45 68 219 240 128 238 225 206 195 198 204 193 190 186 175 178 179 178 180 179 173 163 188 177 176 181 174 171 177 201 184 185 175 170 187 210 179 183 180 193 193 165 160 145 149 113
183 160 152 155 189 219 100 215 260 299 216 204 199 207 179 182 175 171 169 172 159 163 180 181 177 181 172 172 189 193 176 179 198 202 179 208 194 180 175 194 195 189 172 182 194 198 162 158 142
189 171 185 104 24 96 231 299 298 15 64 155 149 158 163 172 167 160 131 105 136 124 175 187 153 160 169 186 181 199 193 182 200 214 179 189 205 190 182 194 204 200 179 175 175 197 189 164 162
157 165 99 14 138 183 297 281 251 3 54 125 144 137 127 134 146 143 147 116 119 116 303 151 153 174 166 172 183 196 196 199 180 201 198 214 248 226 206 210 216 204 194 190 177 178 192 203 192
116 89 52 107 100 150 155 253 217 231 160 138 130 132 139 135 140 158 172 168 127 124 133 98 89 104 130 178 169 180 185 195 180 185 214 193 222 232 232 252 227 213 207 195 191 201 193 213 224
75 143 132 121 223 39 130 247 342 94 117 136 142 136 107 93 123 135 141 144 146 153 138 123 105 78 58 131 137 140 168 189 181 187 201 214 214 209 217 229 223 227 215 219 207 206 197 202 224